Location: *
(50.8512°N, 5.6907°E)
Time: 23:36:51
(UTC+00:00)

STARLINK-1244 - Pass Details

Date: 09 April 2020
Orbit: 549 x 551 km, 53.0° (Epoch: 24 May)

Event Time Altitude Azimuth Distance (km) Brightness Sun altitude
Rises 19:52:18 0° 290° (WNW) 2,726 8.9 -13.7°
Reaches altitude 10° 19:54:32 10° 288° (WNW) 1,830 7.6 -14.0°
Maximum altitude 19:58:40 67° 206° (SSW) 598 3.7 -14.5°
Enters shadow 20:00:49 27° 130° (SE) 1,081 4.5 -14.8°
